TimeEDT,TemperatureF,Dew PointF,Humidity,Sea Level PressureIn,VisibilityMPH,Wind Direction,Wind SpeedMPH,Gust SpeedMPH,PrecipitationIn,Events,Conditions,WindDirDegrees,DateUTC
12:54 AM,62.1,57.9,86,30.00,10.0,SE,6.9,-,0.01,Rain,Light Rain,130,2013-04-15 04:54:00
1:54 AM,63.0,57.9,84,29.94,10.0,SE,15.0,-,0.01,Rain,Light Rain,130,2013-04-15 05:54:00
2:54 AM,64.9,55.9,73,29.99,10.0,ESE,6.9,16.1,0.00,Rain,Light Rain,120,2013-04-15 06:54:00
3:54 AM,63.0,57.9,84,29.98,10.0,East,6.9,-,0.02,,Overcast,90,2013-04-15 07:54:00
4:54 AM,62.1,57.0,84,29.98,10.0,East,5.8,-,N/A,,Mostly Cloudy,80,2013-04-15 08:54:00
5:54 AM,63.0,57.0,81,29.97,10.0,East,8.1,-,N/A,,Overcast,80,2013-04-15 09:54:00
6:54 AM,63.0,57.9,84,29.99,10.0,ENE,6.9,-,N/A,,Overcast,70,2013-04-15 10:54:00
7:02 AM,62.6,57.2,82,29.99,10.0,ENE,9.2,-,N/A,,Overcast,70,2013-04-15 11:02:00
7:24 AM,62.6,57.2,82,30.00,10.0,ENE,8.1,-,N/A,,Overcast,70,2013-04-15 11:24:00
7:54 AM,64.0,57.0,78,30.01,10.0,East,6.9,-,N/A,,Mostly Cloudy,90,2013-04-15 11:54:00
8:54 AM,64.0,57.0,78,30.02,10.0,East,8.1,-,N/A,,Overcast,90,2013-04-15 12:54:00
9:22 AM,64.4,57.2,77,30.03,10.0,ESE,11.5,-,N/A,,Overcast,110,2013-04-15 13:22:00
9:54 AM,64.9,57.0,75,30.05,10.0,East,6.9,-,N/A,,Overcast,90,2013-04-15 13:54:00
10:54 AM,66.0,57.9,75,30.06,10.0,East,10.4,-,N/A,,Overcast,90,2013-04-15 14:54:00
11:54 AM,66.9,57.9,73,30.06,10.0,East,10.4,-,N/A,,Overcast,100,2013-04-15 15:54:00
12:54 PM,68.0,59.0,73,30.08,10.0,Calm,Calm,-,N/A,,Overcast,0,2013-04-15 16:54:00
1:40 PM,69.8,60.8,73,30.08,10.0,Variable,3.5,-,N/A,,Overcast,0,2013-04-15 17:40:00
1:54 PM,70.0,60.1,71,30.08,10.0,South,5.8,-,N/A,,Overcast,190,2013-04-15 17:54:00
2:12 PM,71.6,60.8,69,30.08,10.0,Variable,5.8,-,N/A,,Overcast,0,2013-04-15 18:12:00
2:19 PM,71.6,60.8,69,30.08,10.0,SE,3.5,-,N/A,,Overcast,140,2013-04-15 18:19:00
2:54 PM,73.0,60.1,64,30.09,10.0,Calm,Calm,-,N/A,,Overcast,0,2013-04-15 18:54:00
3:54 PM,72.0,62.1,71,30.08,10.0,SSE,4.6,-,N/A,,Mostly Cloudy,160,2013-04-15 19:54:00
4:54 PM,71.1,60.1,68,30.08,10.0,Variable,4.6,-,N/A,,Overcast,0,2013-04-15 20:54:00
5:54 PM,72.0,60.1,66,30.09,10.0,ENE,5.8,-,N/A,,Overcast,60,2013-04-15 21:54:00
6:54 PM,69.1,59.0,70,30.10,10.0,ENE,6.9,-,N/A,,Mostly Cloudy,70,2013-04-15 22:54:00
7:54 PM,68.0,60.1,76,30.12,10.0,Calm,Calm,-,N/A,,Overcast,0,2013-04-15 23:54:00
8:54 PM,66.9,59.0,76,30.14,10.0,Calm,Calm,-,N/A,,Overcast,0,2013-04-16 00:54:00
9:54 PM,64.9,61.0,87,30.17,10.0,Calm,Calm,-,N/A,,Overcast,0,2013-04-16 01:54:00
10:54 PM,64.0,60.1,87,30.18,10.0,East,3.5,-,N/A,,Overcast,100,2013-04-16 02:54:00
11:54 PM,63.0,60.1,90,30.18,10.0,Calm,Calm,-,N/A,,Overcast,0,2013-04-16 03:54:00